Time,TemperatureF,DewpointF,PressureIn,WindDirection,WindDirectionDegrees,WindSpeedMPH,WindSpeedGustMPH,Humidity,HourlyPrecipIn,Conditions,Clouds,dailyrainin,SoftwareType,DateUTC
2013-04-11 00:00:00,30.6,29.1,29.94,West,270,4.0,13.0,94,0.01,,,0.00,Weather View 32 v70,2013-04-11 05:00:00,
2013-04-11 00:05:00,30.4,28.9,29.94,West,270,7.0,13.0,94,0.01,,,0.00,Weather View 32 v70,2013-04-11 05:05:00,
2013-04-11 00:10:00,30.3,28.8,29.94,NW,315,9.0,13.0,94,0.01,,,0.00,Weather View 32 v70,2013-04-11 05:10:00,
2013-04-11 00:15:00,30.3,28.8,29.95,WNW,292,13.0,13.0,94,0.01,,,0.00,Weather View 32 v70,2013-04-11 05:15:00,
2013-04-11 00:20:00,30.3,28.8,29.94,West,270,7.0,14.0,94,0.00,,,0.00,Weather View 32 v70,2013-04-11 05:20:00,
2013-04-11 00:25:00,30.3,28.8,29.94,WNW,292,9.0,14.0,94,0.00,,,0.00,Weather View 32 v70,2013-04-11 05:25:00,
2013-04-11 00:30:00,30.2,28.7,29.94,West,270,6.0,14.0,94,0.00,,,0.00,Weather View 32 v70,2013-04-11 05:30:00,
2013-04-11 00:35:00,30.2,28.7,29.94,West,270,7.0,14.0,94,0.00,,,0.00,Weather View 32 v70,2013-04-11 05:35:00,
2013-04-11 00:40:00,30.2,28.7,29.94,West,270,4.0,14.0,94,0.00,,,0.00,Weather View 32 v70,2013-04-11 05:40:00,
2013-04-11 00:45:00,30.2,28.7,29.94,West,270,8.0,14.0,94,0.00,,,0.00,Weather View 32 v70,2013-04-11 05:45:00,
2013-04-11 00:50:00,30.1,28.6,29.93,WNW,292,9.0,15.0,94,0.00,,,0.00,Weather View 32 v70,2013-04-11 05:50:00,
2013-04-11 00:55:00,30.0,28.5,29.93,WNW,292,6.0,15.0,94,0.00,,,0.00,Weather View 32 v70,2013-04-11 05:55:00,
2013-04-11 01:00:00,29.9,28.4,29.94,West,270,6.0,15.0,94,0.00,,,0.00,Weather View 32 v70,2013-04-11 06:00:00,
2013-04-11 01:05:00,30.0,28.5,29.93,West,270,5.0,15.0,94,0.00,,,0.00,Weather View 32 v70,2013-04-11 06:05:00,
2013-04-11 01:10:00,30.1,28.6,29.93,NW,315,8.0,15.0,94,0.00,,,0.00,Weather View 32 v70,2013-04-11 06:10:00,
2013-04-11 01:15:00,30.0,28.5,29.92,WNW,292,7.0,15.0,94,0.00,,,0.00,Weather View 32 v70,2013-04-11 06:15:00,
2013-04-11 01:20:00,30.0,28.5,29.92,West,270,7.0,15.0,94,0.00,,,0.00,Weather View 32 v70,2013-04-11 06:20:00,
2013-04-11 01:25:00,29.9,28.4,29.92,West,270,7.0,15.0,94,0.00,,,0.00,Weather View 32 v70,2013-04-11 06:25:00,
2013-04-11 01:30:00,29.9,28.4,29.92,WNW,292,6.0,15.0,94,0.00,,,0.00,Weather View 32 v70,2013-04-11 06:30:00,
2013-04-11 01:35:00,29.9,28.4,29.91,West,270,8.0,15.0,94,0.00,,,0.00,Weather View 32 v70,2013-04-11 06:35:00,
2013-04-11 01:40:00,29.9,28.4,29.91,WSW,247,4.0,15.0,94,0.00,,,0.00,Weather View 32 v70,2013-04-11 06:40:00,
2013-04-11 01:45:00,29.9,28.4,29.91,WNW,292,6.0,15.0,94,0.00,,,0.00,Weather View 32 v70,2013-04-11 06:45:00,
2013-04-11 01:50:00,29.9,28.4,29.90,West,270,6.0,13.0,94,0.00,,,0.00,Weather View 32 v70,2013-04-11 06:50:00,
2013-04-11 01:55:00,29.9,28.4,29.90,NW,315,10.0,13.0,94,0.00,,,0.00,Weather View 32 v70,2013-04-11 06:55:00,
2013-04-11 02:00:00,29.8,28.3,29.90,West,270,7.0,14.0,94,0.00,,,0.00,Weather View 32 v70,2013-04-11 07:00:00,
2013-04-11 02:05:00,29.8,28.3,29.89,NW,315,11.0,14.0,94,0.00,,,0.00,Weather View 32 v70,2013-04-11 07:05:00,
2013-04-11 02:10:00,29.9,28.4,29.88,West,270,10.0,14.0,94,0.00,,,0.00,Weather View 32 v70,2013-04-11 07:10:00,
2013-04-11 02:15:00,29.9,28.4,29.88,West,270,7.0,14.0,94,0.00,,,0.00,Weather View 32 v70,2013-04-11 07:15:00,
2013-04-11 02:20:00,29.9,28.4,29.88,West,270,8.0,14.0,94,0.00,,,0.00,Weather View 32 v70,2013-04-11 07:20:00,
2013-04-11 02:25:00,29.9,28.4,29.88,West,270,4.0,14.0,94,0.00,,,0.00,Weather View 32 v70,2013-04-11 07:25:00,
2013-04-11 02:30:00,29.8,28.3,29.88,NW,315,10.0,14.0,94,0.00,,,0.00,Weather View 32 v70,2013-04-11 07:30:00,
2013-04-11 02:35:00,29.8,28.3,29.88,WNW,292,6.0,14.0,94,0.00,,,0.00,Weather View 32 v70,2013-04-11 07:35:00,
2013-04-11 02:40:00,29.8,28.3,29.87,WNW,292,8.0,14.0,94,0.00,,,0.00,Weather View 32 v70,2013-04-11 07:40:00,
2013-04-11 02:45:00,29.7,28.2,29.87,West,270,5.0,14.0,94,0.00,,,0.00,Weather View 32 v70,2013-04-11 07:45:00,
2013-04-11 02:50:00,29.7,28.2,29.86,West,270,5.0,14.0,94,0.00,,,0.00,Weather View 32 v70,2013-04-11 07:50:00,
2013-04-11 02:55:00,29.6,28.1,29.86,West,270,2.0,14.0,94,0.00,,,0.00,Weather View 32 v70,2013-04-11 07:55:00,
2013-04-11 03:00:00,29.5,28.0,29.86,NW,315,5.0,14.0,94,0.00,,,0.00,Weather View 32 v70,2013-04-11 08:00:00,
2013-04-11 03:05:00,29.5,28.0,29.86,NW,315,7.0,14.0,94,0.00,,,0.00,Weather View 32 v70,2013-04-11 08:05:00,
2013-04-11 03:10:00,29.5,28.0,29.86,NW,315,6.0,14.0,94,0.00,,,0.00,Weather View 32 v70,2013-04-11 08:10:00,
2013-04-11 03:15:00,29.5,28.0,29.86,West,270,2.0,14.0,94,0.00,,,0.00,Weather View 32 v70,2013-04-11 08:15:00,
2013-04-11 03:17:00,29.6,28.1,29.86,WNW,292,4.0,14.0,94,0.00,,,0.00,Weather View 32 v70,2013-04-11 08:17:00,
2013-04-11 06:13:00,29.5,28.0,29.77,West,270,6.0,6.0,94,0.00,,,0.00,Weather View 32 v70,2013-04-11 11:13:00,
2013-04-11 06:18:00,29.5,28.0,29.76,West,270,6.0,11.0,94,0.00,,,0.00,Weather View 32 v70,2013-04-11 11:18:00,
2013-04-11 06:23:00,29.5,28.0,29.76,WNW,292,6.0,11.0,94,0.00,,,0.00,Weather View 32 v70,2013-04-11 11:23:00,
2013-04-11 06:28:00,29.5,28.0,29.76,West,270,6.0,11.0,94,0.00,,,0.00,Weather View 32 v70,2013-04-11 11:28:00,
2013-04-11 06:33:00,29.6,28.1,29.76,WNW,292,5.0,11.0,94,0.00,,,0.00,Weather View 32 v70,2013-04-11 11:33:00,
2013-04-11 06:38:00,29.7,28.2,29.76,WNW,292,6.0,11.0,94,0.00,,,0.00,Weather View 32 v70,2013-04-11 11:38:00,
2013-04-11 06:43:00,29.7,28.2,29.76,West,270,4.0,11.0,94,0.00,,,0.00,Weather View 32 v70,2013-04-11 11:43:00,
2013-04-11 06:48:00,29.8,28.3,29.76,West,270,4.0,11.0,94,0.00,,,0.00,Weather View 32 v70,2013-04-11 11:48:00,
2013-04-11 06:53:00,29.8,28.3,29.76,WNW,292,2.0,11.0,94,0.00,,,0.00,Weather View 32 v70,2013-04-11 11:53:00,
2013-04-11 06:58:00,29.8,28.3,29.77,WSW,247,2.0,11.0,94,0.00,,,0.00,Weather View 32 v70,2013-04-11 11:58:00,
2013-04-11 07:03:00,29.9,28.4,29.77,WNW,292,6.0,11.0,94,0.00,,,0.00,Weather View 32 v70,2013-04-11 12:03:00,
2013-04-11 07:08:00,29.9,28.4,29.77,West,270,4.0,11.0,94,0.00,,,0.00,Weather View 32 v70,2013-04-11 12:08:00,
2013-04-11 07:13:00,29.9,28.4,29.78,West,270,4.0,11.0,94,0.00,,,0.00,Weather View 32 v70,2013-04-11 12:13:00,
2013-04-11 07:18:00,29.9,28.4,29.78,West,270,2.0,9.0,94,0.00,,,0.00,Weather View 32 v70,2013-04-11 12:18:00,
2013-04-11 07:23:00,29.9,28.4,29.78,WNW,292,3.0,9.0,94,0.00,,,0.00,Weather View 32 v70,2013-04-11 12:23:00,
2013-04-11 07:28:00,29.9,28.4,29.78,West,270,4.0,9.0,94,0.00,,,0.00,Weather View 32 v70,2013-04-11 12:28:00,
2013-04-11 07:33:00,30.1,28.6,29.78,NW,315,6.0,8.0,94,0.00,,,0.00,Weather View 32 v70,2013-04-11 12:33:00,
2013-04-11 07:38:00,30.1,28.6,29.78,WNW,292,2.0,8.0,94,0.00,,,0.00,Weather View 32 v70,2013-04-11 12:38:00,
2013-04-11 07:43:00,30.2,28.7,29.78,West,270,3.0,8.0,94,0.00,,,0.00,Weather View 32 v70,2013-04-11 12:43:00,
2013-04-11 07:48:00,30.3,28.8,29.78,WNW,292,2.0,8.0,94,0.00,,,0.00,Weather View 32 v70,2013-04-11 12:48:00,
2013-04-11 07:53:00,30.4,28.9,29.78,WNW,292,3.0,8.0,94,0.00,,,0.00,Weather View 32 v70,2013-04-11 12:53:00,
2013-04-11 07:58:00,30.5,29.0,29.78,West,270,4.0,8.0,94,0.00,,,0.00,Weather View 32 v70,2013-04-11 12:58:00,
2013-04-11 08:03:00,30.5,29.0,29.78,West,270,2.0,8.0,94,0.00,,,0.00,Weather View 32 v70,2013-04-11 13:03:00,
2013-04-11 08:08:00,30.6,29.1,29.78,West,270,2.0,8.0,94,0.00,,,0.00,Weather View 32 v70,2013-04-11 13:08:00,
2013-04-11 08:13:00,30.6,29.1,29.78,WSW,247,1.0,8.0,94,0.00,,,0.00,Weather View 32 v70,2013-04-11 13:13:00,
2013-04-11 08:18:00,30.6,29.1,29.78,WSW,247,3.0,8.0,94,0.00,,,0.00,Weather View 32 v70,2013-04-11 13:18:00,
2013-04-11 08:23:00,30.7,29.2,29.78,WSW,247,2.0,8.0,94,0.00,,,0.00,Weather View 32 v70,2013-04-11 13:23:00,
2013-04-11 08:28:00,30.7,29.2,29.78,West,270,1.0,8.0,94,0.00,,,0.00,Weather View 32 v70,2013-04-11 13:28:00,
2013-04-11 08:33:00,30.7,29.2,29.78,West,270,2.0,7.0,94,0.00,,,0.00,Weather View 32 v70,2013-04-11 13:33:00,
2013-04-11 08:38:00,30.7,29.2,29.78,West,270,2.0,6.0,94,0.00,,,0.00,Weather View 32 v70,2013-04-11 13:38:00,
2013-04-11 08:43:00,30.7,29.2,29.78,WSW,247,2.0,6.0,94,0.00,,,0.00,Weather View 32 v70,2013-04-11 13:43:00,
2013-04-11 08:48:00,30.8,29.3,29.77,WSW,247,2.0,6.0,94,0.00,,,0.00,Weather View 32 v70,2013-04-11 13:48:00,
2013-04-11 08:53:00,30.8,29.3,29.77,WSW,247,3.0,6.0,94,0.00,,,0.00,Weather View 32 v70,2013-04-11 13:53:00,
2013-04-11 08:58:00,30.8,29.3,29.77,WSW,247,4.0,6.0,94,0.00,,,0.00,Weather View 32 v70,2013-04-11 13:58:00,
2013-04-11 09:04:00,30.8,29.3,29.77,WSW,247,2.0,6.0,94,0.00,,,0.00,Weather View 32 v70,2013-04-11 14:04:00,
2013-04-11 09:09:00,30.9,29.4,29.77,WSW,247,2.0,6.0,94,0.00,,,0.00,Weather View 32 v70,2013-04-11 14:09:00,
2013-04-11 09:14:00,30.8,29.3,29.76,WSW,247,4.0,6.0,94,0.00,,,0.00,Weather View 32 v70,2013-04-11 14:14:00,
2013-04-11 09:19:00,30.8,29.3,29.76,WSW,247,3.0,6.0,94,0.01,,,0.01,Weather View 32 v70,2013-04-11 14:19:00,
2013-04-11 09:24:00,30.8,29.3,29.76,WSW,247,2.0,6.0,94,0.01,,,0.01,Weather View 32 v70,2013-04-11 14:24:00,
2013-04-11 09:29:00,30.9,29.4,29.76,WSW,247,3.0,7.0,94,0.01,,,0.01,Weather View 32 v70,2013-04-11 14:29:00,
2013-04-11 09:34:00,30.9,29.4,29.76,West,270,3.0,7.0,94,0.01,,,0.01,Weather View 32 v70,2013-04-11 14:34:00,
2013-04-11 09:39:00,30.9,29.4,29.76,West,270,4.0,7.0,94,0.01,,,0.01,Weather View 32 v70,2013-04-11 14:39:00,
2013-04-11 09:44:00,30.9,29.4,29.76,SW,225,2.0,7.0,94,0.01,,,0.01,Weather View 32 v70,2013-04-11 14:44:00,
2013-04-11 09:49:00,31.1,29.8,29.76,WSW,247,6.0,7.0,95,0.02,,,0.02,Weather View 32 v70,2013-04-11 14:49:00,
2013-04-11 09:54:00,31.3,30.0,29.76,West,270,5.0,7.0,95,0.02,,,0.02,Weather View 32 v70,2013-04-11 14:54:00,
2013-04-11 09:59:00,31.1,29.8,29.76,SW,225,3.0,7.0,95,0.02,,,0.02,Weather View 32 v70,2013-04-11 14:59:00,
2013-04-11 10:04:00,31.2,29.9,29.76,SW,225,4.0,7.0,95,0.02,,,0.02,Weather View 32 v70,2013-04-11 15:04:00,
2013-04-11 10:09:00,31.4,30.1,29.76,West,270,2.0,7.0,95,0.02,,,0.02,Weather View 32 v70,2013-04-11 15:09:00,
2013-04-11 10:14:00,31.5,30.2,29.76,West,270,1.0,7.0,95,0.02,,,0.03,Weather View 32 v70,2013-04-11 15:14:00,
2013-04-11 10:19:00,31.5,30.2,29.76,West,270,4.0,7.0,95,0.02,,,0.03,Weather View 32 v70,2013-04-11 15:19:00,
2013-04-11 10:24:00,31.6,30.3,29.76,West,270,4.0,7.0,95,0.02,,,0.03,Weather View 32 v70,2013-04-11 15:24:00,
2013-04-11 10:29:00,31.7,30.4,29.76,West,270,7.0,7.0,95,0.02,,,0.03,Weather View 32 v70,2013-04-11 15:29:00,
2013-04-11 10:34:00,31.7,30.4,29.77,WSW,247,2.0,7.0,95,0.03,,,0.04,Weather View 32 v70,2013-04-11 15:34:00,
2013-04-11 10:39:00,31.8,30.5,29.76,West,270,2.0,7.0,95,0.03,,,0.04,Weather View 32 v70,2013-04-11 15:39:00,
2013-04-11 10:44:00,31.9,30.6,29.77,West,270,2.0,7.0,95,0.03,,,0.04,Weather View 32 v70,2013-04-11 15:44:00,
2013-04-11 10:49:00,31.9,30.6,29.77,West,270,3.0,7.0,95,0.02,,,0.04,Weather View 32 v70,2013-04-11 15:49:00,
2013-04-11 10:54:00,32.0,30.7,29.77,West,270,4.0,7.0,95,0.03,,,0.05,Weather View 32 v70,2013-04-11 15:54:00,
2013-04-11 10:59:00,32.1,30.8,29.77,West,270,5.0,10.0,95,0.03,,,0.05,Weather View 32 v70,2013-04-11 15:59:00,
2013-04-11 11:04:00,32.2,30.9,29.77,WSW,247,1.0,10.0,95,0.03,,,0.05,Weather View 32 v70,2013-04-11 16:04:00,
2013-04-11 11:09:00,32.3,31.0,29.77,West,270,6.0,10.0,95,0.04,,,0.06,Weather View 32 v70,2013-04-11 16:09:00,
2013-04-11 11:14:00,32.3,31.0,29.77,West,270,6.0,10.0,95,0.03,,,0.06,Weather View 32 v70,2013-04-11 16:14:00,
2013-04-11 11:19:00,32.3,31.0,29.77,NW,315,7.0,10.0,95,0.03,,,0.06,Weather View 32 v70,2013-04-11 16:19:00,
2013-04-11 11:24:00,32.3,31.0,29.77,West,270,7.0,10.0,95,0.03,,,0.06,Weather View 32 v70,2013-04-11 16:24:00,
2013-04-11 11:29:00,32.0,30.7,29.77,West,270,6.0,11.0,95,0.04,,,0.07,Weather View 32 v70,2013-04-11 16:29:00,
2013-04-11 11:34:00,31.9,30.6,29.77,West,270,9.0,11.0,95,0.03,,,0.07,Weather View 32 v70,2013-04-11 16:34:00,
2013-04-11 11:39:00,31.8,30.5,29.77,NW,315,7.0,12.0,95,0.04,,,0.08,Weather View 32 v70,2013-04-11 16:39:00,
2013-04-11 11:44:00,31.8,30.5,29.77,West,270,11.0,12.0,95,0.04,,,0.08,Weather View 32 v70,2013-04-11 16:44:00,
2013-04-11 11:49:00,31.9,30.6,29.77,WNW,292,6.0,12.0,95,0.05,,,0.09,Weather View 32 v70,2013-04-11 16:49:00,
2013-04-11 11:54:00,31.9,30.6,29.77,West,270,6.0,12.0,95,0.05,,,0.10,Weather View 32 v70,2013-04-11 16:54:00,
2013-04-11 11:59:00,31.9,30.6,29.77,West,270,7.0,12.0,95,0.05,,,0.10,Weather View 32 v70,2013-04-11 16:59:00,
2013-04-11 12:04:00,31.9,30.6,29.77,West,270,6.0,12.0,95,0.06,,,0.11,Weather View 32 v70,2013-04-11 17:04:00,
2013-04-11 12:09:00,32.3,31.0,29.77,West,270,5.0,12.0,95,0.05,,,0.11,Weather View 32 v70,2013-04-11 17:09:00,
2013-04-11 12:14:00,32.2,30.9,29.76,WNW,292,8.0,16.0,95,0.06,,,0.12,Weather View 32 v70,2013-04-11 17:14:00,
2013-04-11 12:19:00,32.2,30.9,29.77,WNW,292,10.0,16.0,95,0.06,,,0.12,Weather View 32 v70,2013-04-11 17:19:00,
2013-04-11 12:24:00,32.2,30.9,29.77,NW,315,9.0,16.0,95,0.07,,,0.13,Weather View 32 v70,2013-04-11 17:24:00,
2013-04-11 12:29:00,32.1,30.8,29.77,West,270,6.0,16.0,95,0.07,,,0.14,Weather View 32 v70,2013-04-11 17:29:00,
2013-04-11 12:34:00,32.0,30.7,29.77,WNW,292,5.0,16.0,95,0.07,,,0.14,Weather View 32 v70,2013-04-11 17:34:00,
2013-04-11 12:39:00,31.9,30.6,29.77,West,270,6.0,16.0,95,0.07,,,0.15,Weather View 32 v70,2013-04-11 17:39:00,
2013-04-11 12:44:00,32.1,30.8,29.76,WNW,292,5.0,16.0,95,0.07,,,0.15,Weather View 32 v70,2013-04-11 17:44:00,
2013-04-11 12:49:00,32.2,30.9,29.76,WNW,292,10.0,16.0,95,0.07,,,0.16,Weather View 32 v70,2013-04-11 17:49:00,
2013-04-11 12:54:00,32.3,31.0,29.76,West,270,9.0,16.0,95,0.07,,,0.17,Weather View 32 v70,2013-04-11 17:54:00,
2013-04-11 12:59:00,32.2,30.9,29.76,West,270,9.0,16.0,95,0.08,,,0.18,Weather View 32 v70,2013-04-11 17:59:00,
2013-04-11 13:04:00,32.4,31.1,29.76,West,270,7.0,16.0,95,0.07,,,0.18,Weather View 32 v70,2013-04-11 18:04:00,
2013-04-11 13:09:00,32.7,31.4,29.75,WNW,292,6.0,16.0,95,0.08,,,0.19,Weather View 32 v70,2013-04-11 18:09:00,
2013-04-11 13:14:00,32.8,31.5,29.76,WSW,247,4.0,16.0,95,0.08,,,0.20,Weather View 32 v70,2013-04-11 18:14:00,
2013-04-11 13:19:00,32.9,31.6,29.75,West,270,7.0,16.0,95,0.10,,,0.22,Weather View 32 v70,2013-04-11 18:19:00,
2013-04-11 13:24:00,32.9,31.6,29.76,WNW,292,6.0,16.0,95,0.10,,,0.23,Weather View 32 v70,2013-04-11 18:24:00,
2013-04-11 13:30:00,33.0,31.7,29.75,NW,315,6.0,16.0,95,0.10,,,0.24,Weather View 32 v70,2013-04-11 18:30:00,
2013-04-11 13:35:00,33.3,32.0,29.76,WNW,292,6.0,16.0,95,0.10,,,0.24,Weather View 32 v70,2013-04-11 18:35:00,
2013-04-11 13:40:00,33.1,31.8,29.75,West,270,8.0,16.0,95,0.10,,,0.25,Weather View 32 v70,2013-04-11 18:40:00,
2013-04-11 13:45:00,32.9,31.6,29.75,West,270,7.0,16.0,95,0.11,,,0.26,Weather View 32 v70,2013-04-11 18:45:00,
2013-04-11 13:50:00,33.0,31.7,29.75,West,270,7.0,16.0,95,0.10,,,0.26,Weather View 32 v70,2013-04-11 18:50:00,
2013-04-11 13:55:00,33.0,31.7,29.75,WNW,292,5.0,16.0,95,0.10,,,0.27,Weather View 32 v70,2013-04-11 18:55:00,
2013-04-11 14:00:00,33.2,31.9,29.75,WNW,292,7.0,16.0,95,0.10,,,0.28,Weather View 32 v70,2013-04-11 19:00:00,
2013-04-11 14:05:00,33.2,31.9,29.75,WNW,292,7.0,16.0,95,0.10,,,0.28,Weather View 32 v70,2013-04-11 19:05:00,
2013-04-11 14:10:00,33.2,31.9,29.75,NW,315,11.0,16.0,95,0.10,,,0.29,Weather View 32 v70,2013-04-11 19:10:00,
2013-04-11 14:15:00,33.0,31.7,29.75,WNW,292,7.0,16.0,95,0.09,,,0.29,Weather View 32 v70,2013-04-11 19:15:00,
2013-04-11 14:20:00,33.1,31.8,29.75,NW,315,6.0,16.0,95,0.08,,,0.30,Weather View 32 v70,2013-04-11 19:20:00,
2013-04-11 14:25:00,32.9,31.6,29.75,WNW,292,5.0,16.0,95,0.07,,,0.30,Weather View 32 v70,2013-04-11 19:25:00,
2013-04-11 14:30:00,32.9,31.6,29.76,West,270,6.0,16.0,95,-0.06,,,0.30,Weather View 32 v70,2013-04-11 19:30:00,
2013-04-11 14:35:00,33.0,31.7,29.76,West,270,6.0,16.0,95,0.07,,,0.31,Weather View 32 v70,2013-04-11 19:35:00,
2013-04-11 14:40:00,33.1,31.8,29.75,West,270,7.0,16.0,95,0.07,,,0.32,Weather View 32 v70,2013-04-11 19:40:00,
2013-04-11 14:45:00,33.1,31.8,29.76,WNW,292,9.0,14.0,95,0.06,,,0.32,Weather View 32 v70,2013-04-11 19:45:00,
2013-04-11 14:50:00,32.9,31.6,29.75,WNW,292,13.0,14.0,95,0.06,,,0.32,Weather View 32 v70,2013-04-11 19:50:00,
2013-04-11 14:55:00,32.8,31.5,29.76,West,270,2.0,14.0,95,0.06,,,0.33,Weather View 32 v70,2013-04-11 19:55:00,
2013-04-11 15:00:00,32.7,31.4,29.76,WNW,292,6.0,14.0,95,0.06,,,0.34,Weather View 32 v70,2013-04-11 20:00:00,
2013-04-11 15:05:00,32.9,31.6,29.76,WNW,292,7.0,14.0,95,0.06,,,0.34,Weather View 32 v70,2013-04-11 20:05:00,
2013-04-11 15:10:00,32.9,31.6,29.75,NW,315,7.0,14.0,95,0.06,,,0.35,Weather View 32 v70,2013-04-11 20:10:00,
2013-04-11 15:15:00,32.9,31.6,29.76,West,270,6.0,14.0,95,0.06,,,0.35,Weather View 32 v70,2013-04-11 20:15:00,
2013-04-11 15:20:00,32.9,31.6,29.76,WNW,292,12.0,15.0,95,0.06,,,0.36,Weather View 32 v70,2013-04-11 20:20:00,
2013-04-11 15:25:00,32.9,31.6,29.76,NW,315,4.0,16.0,95,0.06,,,0.36,Weather View 32 v70,2013-04-11 20:25:00,
2013-04-11 15:30:00,33.0,31.7,29.76,West,270,3.0,17.0,95,0.06,,,0.36,Weather View 32 v70,2013-04-11 20:30:00,
2013-04-11 15:35:00,33.2,31.9,29.76,WNW,292,9.0,17.0,95,0.06,,,0.37,Weather View 32 v70,2013-04-11 20:35:00,
2013-04-11 15:40:00,32.9,31.6,29.75,WNW,292,10.0,17.0,95,0.06,,,0.38,Weather View 32 v70,2013-04-11 20:40:00,
2013-04-11 15:45:00,32.9,31.6,29.76,WNW,292,14.0,17.0,95,0.06,,,0.38,Weather View 32 v70,2013-04-11 20:45:00,
2013-04-11 15:50:00,32.9,31.6,29.76,West,270,7.0,17.0,95,0.07,,,0.39,Weather View 32 v70,2013-04-11 20:50:00,
2013-04-11 15:55:00,33.1,31.8,29.76,West,270,6.0,17.0,95,0.07,,,0.40,Weather View 32 v70,2013-04-11 20:55:00,
2013-04-11 16:00:00,33.3,32.0,29.76,NW,315,10.0,17.0,95,0.07,,,0.41,Weather View 32 v70,2013-04-11 21:00:00,
2013-04-11 16:05:00,33.1,31.8,29.76,WNW,292,8.0,17.0,95,0.07,,,0.41,Weather View 32 v70,2013-04-11 21:05:00,
2013-04-11 16:10:00,33.1,31.8,29.76,WNW,292,9.0,17.0,95,0.07,,,0.42,Weather View 32 v70,2013-04-11 21:10:00,
2013-04-11 16:15:00,33.3,32.0,29.77,NW,315,12.0,17.0,95,0.07,,,0.42,Weather View 32 v70,2013-04-11 21:15:00,
2013-04-11 16:20:00,33.3,32.0,29.77,NW,315,10.0,17.0,95,0.07,,,0.43,Weather View 32 v70,2013-04-11 21:20:00,
2013-04-11 16:25:00,33.1,31.8,29.77,WNW,292,11.0,17.0,95,0.08,,,0.44,Weather View 32 v70,2013-04-11 21:25:00,
2013-04-11 16:31:00,33.1,31.8,29.77,West,270,8.0,17.0,95,0.08,,,0.44,Weather View 32 v70,2013-04-11 21:31:00,
2013-04-11 16:36:00,33.3,32.0,29.78,NW,315,10.0,17.0,95,0.07,,,0.45,Weather View 32 v70,2013-04-11 21:36:00,
2013-04-11 16:41:00,33.1,31.8,29.78,West,270,8.0,17.0,95,0.07,,,0.45,Weather View 32 v70,2013-04-11 21:41:00,
2013-04-11 16:46:00,33.2,31.9,29.78,West,270,7.0,17.0,95,0.08,,,0.46,Weather View 32 v70,2013-04-11 21:46:00,
2013-04-11 16:51:00,33.1,31.8,29.78,NW,315,14.0,17.0,95,0.07,,,0.46,Weather View 32 v70,2013-04-11 21:51:00,
2013-04-11 16:56:00,32.9,31.6,29.78,WNW,292,8.0,17.0,95,0.06,,,0.46,Weather View 32 v70,2013-04-11 21:56:00,
2013-04-11 17:01:00,32.9,31.6,29.78,West,270,8.0,17.0,95,0.06,,,0.47,Weather View 32 v70,2013-04-11 22:01:00,
2013-04-11 17:06:00,32.9,31.6,29.78,NW,315,12.0,16.0,95,0.06,,,0.47,Weather View 32 v70,2013-04-11 22:06:00,
2013-04-11 17:11:00,32.8,31.5,29.78,West,270,9.0,16.0,95,0.05,,,0.48,Weather View 32 v70,2013-04-11 22:11:00,
2013-04-11 17:16:00,32.7,31.4,29.78,NW,315,9.0,16.0,95,0.05,,,0.48,Weather View 32 v70,2013-04-11 22:16:00,
2013-04-11 17:21:00,32.5,31.2,29.78,NW,315,12.0,16.0,95,0.05,,,0.48,Weather View 32 v70,2013-04-11 22:21:00,
2013-04-11 17:26:00,32.5,31.2,29.78,West,270,6.0,16.0,95,0.04,,,0.48,Weather View 32 v70,2013-04-11 22:26:00,
2013-04-11 17:31:00,32.5,31.2,29.78,West,270,7.0,17.0,95,0.04,,,0.49,Weather View 32 v70,2013-04-11 22:31:00,
2013-04-11 17:36:00,32.5,31.2,29.78,West,270,8.0,18.0,95,0.04,,,0.49,Weather View 32 v70,2013-04-11 22:36:00,
2013-04-11 17:41:00,32.6,31.3,29.78,WNW,292,6.0,18.0,95,0.04,,,0.49,Weather View 32 v70,2013-04-11 22:41:00,
2013-04-11 17:46:00,32.7,31.4,29.78,West,270,6.0,18.0,95,0.03,,,0.49,Weather View 32 v70,2013-04-11 22:46:00,
2013-04-11 17:51:00,32.4,31.1,29.78,WNW,292,7.0,18.0,95,0.03,,,0.49,Weather View 32 v70,2013-04-11 22:51:00,
2013-04-11 17:56:00,32.4,31.1,29.78,WSW,247,8.0,18.0,95,0.04,,,0.50,Weather View 32 v70,2013-04-11 22:56:00,
2013-04-11 18:01:00,32.3,31.0,29.79,WNW,292,13.0,19.0,95,0.03,,,0.50,Weather View 32 v70,2013-04-11 23:01:00,
2013-04-11 18:07:00,32.1,30.8,29.79,WNW,292,10.0,19.0,95,0.03,,,0.50,Weather View 32 v70,2013-04-11 23:07:00,
2013-04-11 18:12:00,31.9,30.6,29.78,SW,225,5.0,19.0,95,0.02,,,0.50,Weather View 32 v70,2013-04-11 23:12:00,
2013-04-11 18:17:00,32.2,30.9,29.79,WNW,292,10.0,19.0,95,0.02,,,0.50,Weather View 32 v70,2013-04-11 23:17:00,
2013-04-11 18:22:00,32.1,30.8,29.79,WNW,292,9.0,19.0,95,0.02,,,0.50,Weather View 32 v70,2013-04-11 23:22:00,
2013-04-11 18:27:00,32.1,30.8,29.79,West,270,9.0,19.0,95,0.02,,,0.50,Weather View 32 v70,2013-04-11 23:27:00,
2013-04-11 18:32:00,31.9,30.6,29.79,West,270,9.0,19.0,95,0.02,,,0.50,Weather View 32 v70,2013-04-11 23:32:00,
2013-04-11 18:37:00,31.9,30.6,29.79,West,270,6.0,19.0,95,0.02,,,0.51,Weather View 32 v70,2013-04-11 23:37:00,
2013-04-11 18:42:00,31.7,30.4,29.78,West,270,8.0,19.0,95,0.02,,,0.51,Weather View 32 v70,2013-04-11 23:42:00,
2013-04-11 18:47:00,31.6,30.3,29.79,West,270,12.0,19.0,95,0.02,,,0.51,Weather View 32 v70,2013-04-11 23:47:00,
2013-04-11 18:52:00,31.5,30.2,29.79,West,270,14.0,22.0,95,0.02,,,0.51,Weather View 32 v70,2013-04-11 23:52:00,
2013-04-11 18:57:00,31.4,30.1,29.79,West,270,6.0,22.0,95,0.01,,,0.51,Weather View 32 v70,2013-04-11 23:57:00,
2013-04-11 19:02:00,31.4,30.1,29.79,WNW,292,11.0,22.0,95,0.01,,,0.51,Weather View 32 v70,2013-04-12 00:02:00,
2013-04-11 19:07:00,31.3,30.0,29.80,WNW,292,11.0,22.0,95,0.01,,,0.51,Weather View 32 v70,2013-04-12 00:07:00,
2013-04-11 19:12:00,31.3,30.0,29.80,West,270,15.0,22.0,95,0.01,,,0.51,Weather View 32 v70,2013-04-12 00:12:00,
2013-04-11 19:17:00,31.4,30.1,29.80,West,270,11.0,22.0,95,0.01,,,0.51,Weather View 32 v70,2013-04-12 00:17:00,
2013-04-11 19:22:00,31.3,30.0,29.80,WNW,292,11.0,22.0,95,0.01,,,0.51,Weather View 32 v70,2013-04-12 00:22:00,
2013-04-11 19:27:00,31.3,30.0,29.80,West,270,12.0,22.0,95,0.01,,,0.51,Weather View 32 v70,2013-04-12 00:27:00,
2013-04-11 19:32:00,31.3,30.0,29.80,WNW,292,7.0,22.0,95,0.01,,,0.51,Weather View 32 v70,2013-04-12 00:32:00,
2013-04-11 19:37:00,31.2,29.9,29.79,West,270,11.0,22.0,95,0.00,,,0.51,Weather View 32 v70,2013-04-12 00:37:00,
2013-04-11 19:42:00,31.2,29.9,29.80,WNW,292,11.0,22.0,95,0.00,,,0.51,Weather View 32 v70,2013-04-12 00:42:00,
2013-04-11 19:47:00,31.3,30.0,29.80,WNW,292,7.0,22.0,95,0.00,,,0.51,Weather View 32 v70,2013-04-12 00:47:00,
2013-04-11 19:52:00,31.3,30.0,29.80,West,270,11.0,19.0,95,0.00,,,0.51,Weather View 32 v70,2013-04-12 00:52:00,
2013-04-11 19:57:00,31.4,30.1,29.80,West,270,9.0,21.0,95,0.00,,,0.51,Weather View 32 v70,2013-04-12 00:57:00,
2013-04-11 20:02:00,31.5,30.2,29.80,WNW,292,15.0,21.0,95,0.00,,,0.51,Weather View 32 v70,2013-04-12 01:02:00,
2013-04-11 20:07:00,31.4,30.1,29.80,West,270,12.0,21.0,95,0.00,,,0.51,Weather View 32 v70,2013-04-12 01:07:00,
2013-04-11 20:12:00,31.4,30.1,29.80,West,270,7.0,21.0,95,0.00,,,0.51,Weather View 32 v70,2013-04-12 01:12:00,
2013-04-11 20:17:00,31.5,30.2,29.80,WNW,292,11.0,21.0,95,0.00,,,0.51,Weather View 32 v70,2013-04-12 01:17:00,
2013-04-11 20:22:00,31.4,30.1,29.80,NW,315,13.0,22.0,95,0.00,,,0.51,Weather View 32 v70,2013-04-12 01:22:00,
2013-04-11 20:27:00,31.5,30.2,29.80,NW,315,17.0,22.0,95,0.00,,,0.51,Weather View 32 v70,2013-04-12 01:27:00,
2013-04-11 20:32:00,31.4,30.1,29.80,NW,315,14.0,22.0,95,0.00,,,0.51,Weather View 32 v70,2013-04-12 01:32:00,
2013-04-11 20:37:00,31.4,30.1,29.80,WNW,292,9.0,22.0,95,0.00,,,0.51,Weather View 32 v70,2013-04-12 01:37:00,
2013-04-11 20:42:00,31.3,30.0,29.80,WNW,292,11.0,27.0,95,0.00,,,0.51,Weather View 32 v70,2013-04-12 01:42:00,
2013-04-11 20:47:00,31.3,30.0,29.80,West,270,4.0,27.0,95,0.00,,,0.51,Weather View 32 v70,2013-04-12 01:47:00,
2013-04-11 20:53:00,31.3,30.0,29.80,West,270,8.0,27.0,95,0.00,,,0.51,Weather View 32 v70,2013-04-12 01:53:00,
2013-04-11 20:58:00,31.2,29.9,29.80,WNW,292,9.0,27.0,95,0.00,,,0.51,Weather View 32 v70,2013-04-12 01:58:00,
2013-04-11 21:03:00,31.3,30.0,29.81,WNW,292,12.0,27.0,95,0.00,,,0.51,Weather View 32 v70,2013-04-12 02:03:00,
2013-04-11 21:08:00,31.3,30.0,29.81,West,270,11.0,27.0,95,0.00,,,0.51,Weather View 32 v70,2013-04-12 02:08:00,
2013-04-11 21:13:00,31.4,30.1,29.81,WNW,292,18.0,27.0,95,0.00,,,0.51,Weather View 32 v70,2013-04-12 02:13:00,
2013-04-11 21:18:00,31.3,30.0,29.81,WNW,292,9.0,27.0,95,0.00,,,0.51,Weather View 32 v70,2013-04-12 02:18:00,
2013-04-11 21:23:00,31.5,30.2,29.82,WNW,292,2.0,27.0,95,0.00,,,0.51,Weather View 32 v70,2013-04-12 02:23:00,
2013-04-11 21:28:00,31.3,30.0,29.81,West,270,11.0,27.0,95,0.00,,,0.51,Weather View 32 v70,2013-04-12 02:28:00,
2013-04-11 21:33:00,31.3,30.0,29.82,West,270,9.0,27.0,95,0.00,,,0.51,Weather View 32 v70,2013-04-12 02:33:00,
2013-04-11 21:38:00,31.3,30.0,29.82,NW,315,13.0,27.0,95,0.00,,,0.51,Weather View 32 v70,2013-04-12 02:38:00,
2013-04-11 21:43:00,31.2,29.9,29.82,West,270,12.0,22.0,95,0.00,,,0.51,Weather View 32 v70,2013-04-12 02:43:00,
2013-04-11 21:48:00,31.2,29.9,29.82,WNW,292,7.0,22.0,95,0.00,,,0.51,Weather View 32 v70,2013-04-12 02:48:00,
2013-04-11 21:53:00,31.2,29.9,29.82,West,270,8.0,22.0,95,0.00,,,0.51,Weather View 32 v70,2013-04-12 02:53:00,
2013-04-11 21:58:00,31.1,29.8,29.82,West,270,6.0,22.0,95,0.00,,,0.51,Weather View 32 v70,2013-04-12 02:58:00,
2013-04-11 22:03:00,31.0,29.7,29.82,WNW,292,16.0,21.0,95,0.00,,,0.51,Weather View 32 v70,2013-04-12 03:03:00,
2013-04-11 22:08:00,31.1,29.8,29.82,WNW,292,15.0,21.0,95,0.00,,,0.51,Weather View 32 v70,2013-04-12 03:08:00,
2013-04-11 22:13:00,31.1,29.8,29.83,West,270,10.0,21.0,95,0.00,,,0.51,Weather View 32 v70,2013-04-12 03:13:00,
2013-04-11 22:18:00,30.9,29.4,29.82,NW,315,11.0,21.0,94,0.00,,,0.51,Weather View 32 v70,2013-04-12 03:18:00,
2013-04-11 22:23:00,31.0,29.7,29.82,WNW,292,8.0,19.0,95,0.00,,,0.51,Weather View 32 v70,2013-04-12 03:23:00,
2013-04-11 22:28:00,31.2,29.9,29.83,West,270,9.0,19.0,95,0.00,,,0.51,Weather View 32 v70,2013-04-12 03:28:00,
2013-04-11 22:33:00,31.2,29.9,29.83,WNW,292,6.0,19.0,95,0.00,,,0.51,Weather View 32 v70,2013-04-12 03:33:00,
2013-04-11 22:38:00,31.2,29.9,29.83,WNW,292,9.0,19.0,95,-0.19,,,0.51,Weather View 32 v70,2013-04-12 03:38:00,
2013-04-11 22:43:00,31.3,30.0,29.84,WNW,292,14.0,19.0,95,-0.19,,,0.51,Weather View 32 v70,2013-04-12 03:43:00,
2013-04-11 22:48:00,31.2,29.9,29.83,WNW,292,11.0,19.0,95,0.00,,,0.51,Weather View 32 v70,2013-04-12 03:48:00,
2013-04-11 22:53:00,31.2,29.9,29.83,West,270,4.0,19.0,95,0.00,,,0.51,Weather View 32 v70,2013-04-12 03:53:00,
2013-04-11 22:58:00,31.2,29.9,29.84,West,270,5.0,19.0,95,0.00,,,0.51,Weather View 32 v70,2013-04-12 03:58:00,
2013-04-11 23:00:00,30.9,29.4,29.84,WNW,292,11.0,19.0,94,0.00,,,0.51,Weather View 32 v70,2013-04-12 04:00:00,
2013-04-11 23:05:00,30.9,29.4,29.84,West,270,10.0,19.0,94,0.00,,,0.51,Weather View 32 v70,2013-04-12 04:05:00,
2013-04-11 23:10:00,30.9,29.4,29.84,West,270,9.0,19.0,94,0.00,,,0.51,Weather View 32 v70,2013-04-12 04:10:00,
2013-04-11 23:15:00,30.9,29.4,29.84,WNW,292,6.0,19.0,94,0.00,,,0.51,Weather View 32 v70,2013-04-12 04:15:00,
2013-04-11 23:20:00,30.9,29.4,29.84,West,270,11.0,19.0,94,0.00,,,0.51,Weather View 32 v70,2013-04-12 04:20:00,
2013-04-11 23:25:00,30.9,29.4,29.84,WNW,292,7.0,19.0,94,0.00,,,0.51,Weather View 32 v70,2013-04-12 04:25:00,
2013-04-11 23:30:00,30.9,29.4,29.84,West,270,7.0,19.0,94,0.00,,,0.51,Weather View 32 v70,2013-04-12 04:30:00,
2013-04-11 23:35:00,30.9,29.4,29.84,West,270,10.0,19.0,94,0.00,,,0.51,Weather View 32 v70,2013-04-12 04:35:00,
2013-04-11 23:40:00,30.9,29.4,29.84,WNW,292,6.0,19.0,94,0.00,,,0.51,Weather View 32 v70,2013-04-12 04:40:00,
2013-04-11 23:45:00,30.9,29.4,29.85,West,270,3.0,19.0,94,0.00,,,0.51,Weather View 32 v70,2013-04-12 04:45:00,
2013-04-11 23:50:00,31.0,29.7,29.85,West,270,2.0,19.0,95,0.00,,,0.51,Weather View 32 v70,2013-04-12 04:50:00,
2013-04-11 23:55:00,30.9,29.4,29.84,West,270,8.0,19.0,94,0.00,,,0.51,Weather View 32 v70,2013-04-12 04:55:00,